ERS-1

operational
NORAD ID: 21574 Int'l Des: 1991-050 Owner: ESA Country: I-ESA
LEOCIRCULARRETROGRADESSO

关于 ERS-1

正在加载描述...

实时位置

正在加载3D地球...

即将过境

高度历史

Altitude vs Time

uPlot chart will show altitude changes over time

两行轨道根数

1 21574U 91050A 26062.02426083 .00000373 00000-0 13389-3 0 9995
2 21574 98.7885 80.0912 0031273 220.5217 139.3642 14.39443076814777
Epoch: Mar 3, 2026 • Age: 19 hours

当前状态

高度 779.7 km
速度 7.46 km/s
星下点 -15.26°S, 1.21°W
发射日期 Jul 17, 1991
运行时间 34.6 years
类型 other

技术详情

分类 Payload
质量 2384.00 kg
干质量 2080.00 kg
总质量 2384.00 kg
长度 11.80 m
直径 2.50 m
跨度 11.80 m
形状 Box + Pan
制造商 DASAF
平台类型 ESA ERS
阶段状态 In Orbit
所有者/国家 ESA/I-ESA

大型星座

Loading constellations...